| time (UTC) | temp F | wind direction | speed knots | gust knots | rain 1hr in | rain 24hr in | rain mn in | humidity % | barometer mb |
| 20260509044557 | 38 | 351 | 2.6 | 4.3 | 0.00 | 0.16 | 0.00 | 81 | 1012.5 |
| 20260509043012 | 37 | 1 | 2.6 | 4.3 | 0.00 | 0.16 | 0.00 | 81 | 1012.4 |
| 20260509041538 | 38 | 351 | 1.7 | 4.3 | 0.00 | 0.16 | 0.00 | 81 | 1012.6 |
| 20260509040058 | 38 | 339 | 2.6 | 5.2 | 0.00 | 0.16 | 0.16 | 81 | 1012.7 |
| 20260509034515 | 37 | 1 | 1.7 | 3.5 | 0.00 | 0.16 | 0.16 | 82 | 1012.7 |
| 20260509033040 | 38 | 15 | 1.7 | 5.2 | 0.00 | 0.16 | 0.16 | 82 | 1012.7 |
| 20260509031603 | 38 | 28 | 2.6 | 6.1 | 0.00 | 0.16 | 0.16 | 82 | 1012.7 |
| 20260509030032 | 39 | 1 | 3.5 | 5.2 | 0.00 | 0.16 | 0.16 | 81 | 1012.8 |
| 20260509024549 | 39 | 13 | 1.7 | 4.3 | 0.00 | 0.16 | 0.16 | 81 | 1013.0 |
| 20260509023014 | 40 | 46 | 1.7 | 4.3 | 0.00 | 0.16 | 0.16 | 81 | 1013.1 |
| 20260509021534 | 40 | 20 | 2.6 | 5.2 | 0.00 | 0.16 | 0.16 | 81 | 1012.9 |
| 20260509020022 | 41 | 13 | 3.5 | 4.3 | 0.00 | 0.16 | 0.16 | 81 | 1013.1 |
| 20260509014557 | 41 | 20 | 3.5 | 5.2 | 0.00 | 0.16 | 0.16 | 80 | 1013.0 |
| 20260509013105 | 41 | 347 | 1.7 | 3.5 | 0.00 | 0.16 | 0.16 | 80 | 1012.8 |
| 20260509011517 | 41 | 6 | 1.7 | 7.0 | 0.00 | 0.16 | 0.16 | 79 | 1012.6 |
| 20260509010035 | 41 | 13 | 3.5 | 5.2 | 0.00 | 0.16 | 0.16 | 79 | 1012.4 |
| 20260509004554 | 42 | 8 | 3.5 | 6.1 | 0.00 | 0.16 | 0.16 | 78 | 1012.2 |
| 20260509003016 | 44 | 1 | 2.6 | 4.3 | 0.00 | 0.16 | 0.16 | 75 | 1012.1 |
| 20260509001537 | 45 | 331 | 3.5 | 4.3 | 0.00 | 0.16 | 0.16 | 71 | 1011.9 |
| 20260509000055 | 47 | 1 | 3.5 | 4.3 | 0.00 | 0.16 | 0.16 | 68 | 1011.8 |
| 20260508234509 | 50 | 340 | 1.7 | 4.3 | 0.00 | 0.16 | 0.16 | 63 | 1011.6 |
| 20260508233036 | 51 | 344 | 2.6 | 6.1 | 0.00 | 0.16 | 0.16 | 61 | 1011.4 |
| 20260508231555 | 52 | 338 | 3.5 | 6.1 | 0.00 | 0.16 | 0.16 | 61 | 1011.4 |
| 20260508230048 | 52 | 347 | 3.5 | 5.2 | 0.00 | 0.16 | 0.16 | 59 | 1011.4 |
| 20260508224534 | 53 | 340 | 4.3 | 9.6 | 0.00 | 0.16 | 0.16 | 59 | 1011.5 |
| 20260508223059 | 54 | 23 | 2.6 | 7.8 | 0.00 | 0.16 | 0.16 | 57 | 1011.4 |
| 20260508221535 | 54 | 300 | 1.7 | 5.2 | 0.00 | 0.16 | 0.16 | 58 | 1011.4 |
| 20260508220059 | 53 | 197 | 1.7 | 9.6 | 0.00 | 0.16 | 0.16 | 59 | 1011.5 |
| 20260508214525 | 53 | 340 | 5.2 | 10.4 | 0.00 | 0.16 | 0.16 | 61 | 1011.7 |
| 20260508213107 | 53 | 269 | 6.1 | 11.3 | 0.00 | 0.16 | 0.16 | 57 | 1011.7 |
| 20260508211512 | 54 | 308 | 7.0 | 16.5 | 0.00 | 0.16 | 0.16 | 56 | 1011.7 |
| 20260508210035 | 54 | 241 | 6.1 | 15.6 | 0.00 | 0.16 | 0.16 | 55 | 1011.8 |
| 20260508204555 | 54 | 300 | 5.2 | 8.7 | 0.00 | 0.16 | 0.16 | 60 | 1011.8 |
| 20260508203013 | 54 | 308 | 7.0 | 12.2 | 0.00 | 0.16 | 0.16 | 54 | 1012.0 |
| 20260508201542 | 53 | 296 | 6.1 | 11.3 | 0.00 | 0.16 | 0.16 | 59 | 1012.1 |
| 20260508200017 | 53 | 223 | 3.5 | 13.0 | 0.00 | 0.16 | 0.16 | 63 | 1012.2 |
| 20260508194550 | 53 | 115 | 8.7 | 16.5 | 0.00 | 0.16 | 0.16 | 60 | 1012.5 |
| 20260508193054 | 51 | 225 | 4.3 | 13.0 | 0.00 | 0.16 | 0.16 | 67 | 1012.6 |
| 20260508191552 | 51 | 219 | 2.6 | 14.8 | 0.00 | 0.16 | 0.16 | 65 | 1012.9 |
| 20260508190010 | 51 | 257 | 7.8 | 16.5 | 0.00 | 0.16 | 0.16 | 67 | 1012.9 |
| 20260508184533 | 50 | 250 | 6.1 | 12.2 | 0.00 | 0.16 | 0.16 | 71 | 1013.1 |
| 20260508183058 | 48 | 318 | 7.0 | 15.6 | 0.00 | 0.16 | 0.16 | 75 | 1013.3 |
| 20260508181520 | 47 | 271 | 7.0 | 10.4 | 0.00 | 0.16 | 0.16 | 76 | 1013.5 |
| 20260508180037 | 46 | 309 | 5.2 | 14.8 | 0.00 | 0.16 | 0.16 | 74 | 1013.5 |
| 20260508174615 | 47 | 340 | 3.5 | 13.9 | 0.00 | 0.16 | 0.16 | 76 | 1013.5 |
| 20260508173018 | 47 | 140 | 5.2 | 8.7 | 0.00 | 0.16 | 0.16 | 78 | 1013.6 |
| 20260508171555 | 46 | 190 | 3.5 | 9.6 | 0.00 | 0.16 | 0.16 | 81 | 1013.7 |
| 20260508170010 | 45 | 168 | 2.6 | 12.2 | 0.00 | 0.16 | 0.16 | 80 | 1013.7 |
| 20260508164605 | 45 | 231 | 1.7 | 10.4 | 0.00 | 0.16 | 0.16 | 82 | 1013.7 |
| 20260508163038 | 44 | 204 | 3.5 | 7.8 | 0.00 | 0.16 | 0.16 | 83 | 1013.7 |
| 20260508161513 | 43 | 319 | 2.6 | 10.4 | 0.00 | 0.16 | 0.16 | 84 | 1013.8 |
| 20260508160039 | 40 | 32 | 2.6 | 11.3 | 0.00 | 0.16 | 0.16 | 83 | 1013.9 |
| 20260508154558 | 40 | 279 | 2.6 | 9.6 | 0.01 | 0.16 | 0.16 | 83 | 1014.0 |
| 20260508153032 | 39 | 269 | 3.5 | 6.1 | 0.01 | 0.16 | 0.16 | 84 | 1014.0 |
| 20260508151546 | 38 | 206 | 2.6 | 7.8 | 0.01 | 0.16 | 0.16 | 83 | 1014.0 |
| 20260508150059 | 37 | 346 | 0.9 | 2.6 | 0.02 | 0.16 | 0.16 | 84 | 1013.7 |
| 20260508144522 | 36 | 269 | 2.6 | 6.1 | 0.03 | 0.15 | 0.15 | 83 | 1013.9 |
| 20260508143044 | 36 | 250 | 1.7 | 4.3 | 0.05 | 0.15 | 0.15 | 83 | 1014.0 |
| 20260508141510 | 36 | 1 | 0.0 | 1.7 | 0.10 | 0.15 | 0.15 | 83 | 1013.6 |
| 20260508140032 | 36 | 344 | 0.0 | 4.3 | 0.13 | 0.14 | 0.14 | 83 | 1013.7 |
| 20260508134601 | 36 | 300 | 2.6 | 5.2 | 0.12 | 0.12 | 0.12 | 83 | 1013.9 |
| 20260508133009 | 36 | 330 | 2.6 | 8.7 | 0.09 | 0.09 | 0.10 | 83 | 1013.6 |
| 20260508131547 | 38 | 259 | 3.5 | 13.0 | 0.05 | 0.05 | 0.06 | 82 | 1013.7 |
| 20260508130009 | 41 | 203 | 0.9 | 8.7 | 0.01 | 0.01 | 0.01 | 81 | 1013.1 |
| 20260508124545 | 42 | 135 | 2.6 | 5.2 | 0.00 | 0.00 | 0.00 | 80 | 1012.9 |
| 20260508123012 | 43 | 226 | 1.7 | 4.3 | 0.00 | 0.00 | 0.00 | 80 | 1012.3 |
| 20260508121537 | 43 | 150 | 2.6 | 5.2 | 0.00 | 0.00 | 0.00 | 80 | 1012.1 |
| 20260508120101 | 42 | 163 | 1.7 | 5.2 | 0.00 | 0.00 | 0.00 | 82 | 1012.1 |
| 20260508114523 | 40 | 89 | 0.9 | 2.6 | 0.00 | 0.00 | 0.00 | 83 | 1012.5 |
| 20260508113053 | 38 | 279 | 0.9 | 2.6 | 0.00 | 0.00 | 0.00 | 83 | 1012.4 |
| 20260508111502 | 37 | 89 | 0.9 | 3.5 | 0.00 | 0.00 | 0.00 | 84 | 1012.6 |
| 20260508110027 | 36 | 135 | 0.9 | 3.5 | 0.00 | 0.00 | 0.00 | 84 | 1012.7 |
| 20260508104550 | 35 | 15 | 0.9 | 2.6 | 0.00 | 0.00 | 0.00 | 84 | 1012.7 |
| 20260508103001 | 35 | 1 | 1.7 | 3.5 | 0.00 | 0.00 | 0.00 | 84 | 1012.7 |
| 20260508101549 | 35 | 1 | 0.9 | 2.6 | 0.00 | 0.00 | 0.00 | 83 | 1012.8 |
| 20260508100031 | 34 | 15 | 0.9 | 2.6 | 0.00 | 0.00 | 0.00 | 83 | 1012.8 |
| 20260508094506 | 33 | 223 | 0.9 | 2.6 | 0.00 | 0.00 | 0.00 | 83 | 1012.9 |
| 20260508093039 | 33 | 314 | 0.0 | 1.7 | 0.00 | 0.00 | 0.00 | 83 | 1012.8 |
| 20260508091507 | 33 | 117 | 0.9 | 2.6 | 0.00 | 0.00 | 0.00 | 83 | 1012.7 |
| 20260508090025 | 33 | 340 | 0.9 | 2.6 | 0.00 | 0.00 | 0.00 | 82 | 1012.4 |
| 20260508084543 | 34 | 15 | 1.7 | 3.5 | 0.00 | 0.00 | 0.00 | 82 | 1012.6 |
| 20260508083013 | 35 | 1 | 1.7 | 4.3 | 0.00 | 0.00 | 0.00 | 82 | 1012.3 |
| 20260508081535 | 36 | 63 | 0.9 | 3.5 | 0.00 | 0.00 | 0.00 | 82 | 1012.3 |
| 20260508080059 | 37 | 253 | 1.7 | 3.5 | 0.00 | 0.00 | 0.00 | 81 | 1012.4 |
| 20260508074509 | 38 | 331 | 2.6 | 5.2 | 0.00 | 0.00 | 0.00 | 80 | 1012.1 |
| 20260508073041 | 39 | 23 | 1.7 | 5.2 | 0.00 | 0.00 | 0.00 | 79 | 1012.1 |
| 20260508071525 | 40 | 331 | 1.7 | 7.0 | 0.00 | 0.00 | 0.00 | 79 | 1012.3 |
| 20260508070100 | 40 | 330 | 1.7 | 6.1 | 0.00 | 0.00 | 0.00 | 80 | 1012.3 |
| 20260508064535 | 39 | 331 | 0.9 | 4.3 | 0.00 | 0.00 | 0.00 | 81 | 1012.4 |
| 20260508063125 | 38 | 334 | 1.7 | 4.3 | 0.00 | 0.00 | 0.00 | 83 | 1012.1 |
| 20260508061518 | 37 | 18 | 1.7 | 4.3 | 0.00 | 0.00 | 0.00 | 83 | 1012.0 |
| 20260508060039 | 36 | 15 | 1.7 | 3.5 | 0.00 | 0.00 | 0.00 | 83 | 1011.8 |
| 20260508054554 | 36 | 28 | 1.7 | 3.5 | 0.00 | 0.00 | 0.00 | 83 | 1011.9 |
| 20260508053010 | 36 | 6 | 2.6 | 5.2 | 0.00 | 0.00 | 0.00 | 83 | 1012.0 |
| 20260508051602 | 36 | 1 | 0.0 | 1.7 | 0.00 | 0.00 | 0.00 | 82 | 1012.1 |
| 20260508050055 | 37 | 1 | 1.7 | 2.6 | 0.00 | 0.00 | 0.00 | 82 | 1012.3 |